CZ-6A DEB, 54304

Orbit data source: Space-Track

CZ-6A DEB, 54304 is space debris in SSO originally from a launch on Fri, 11 Nov 2022 UTC launched from the Taiyaun Space Center, China (TSC). Debris objects in space refer to the collection of defunct objects orbiting the Earth. Examples of debris include non-operational satellites, rocket bodies, and fragments generated from explosions, collisions, or faulty payload assembly.

Loading next visibility...
Identifier
54304, 2022-151AX
Orbit
SSO
Country
Flag of CNCN / PRC
Related business
Manufacturer
SAST
Mission
Spacecraft
Bus & Motor
Unknown
Mass
Unknown
Launch date (UTC)
2022-11-11 (3 years ago)
Launch vehicle
Unknown
Launch site
Taiyaun Space Center, China (TSC)
Object type
Payload
Rocket body
Debris
Shape & HBR
Unknown shape, 0.1 m
Radar Cross Section
Small (<0.1 m²)

Expand to show TLE details & history
Last TLE update: 6 hours ago

TLE from 6 hours ago
0 CZ-6A DEB
1 54304U 22151AX  25355.52028288  .00001543  00000-0  80097-3 0  9992
2 54304  98.8380   0.1038 0043461  99.4174 261.1916 14.15751722159677
Epoch: 2025-12-21T12:29Z
TLE epoch observation values (Epoch: 2025-12-21T12:29:12.440Z)
Latitude
-0.00011°
Longitude
82.47043°
Altitude
847.598 km
Speed
7.426 km/s
True Right ascension
00h 00m 24s
True Declination
0° 00' 00"
Sunlit
Object was in daylight at epoch
Visualization orbit readout
Latitude
Unknown
Longitude
Unknown
Altitude
Unknown
Speed
Unknown
Apparent Right ascension
Unknown
Apparent Declination
Unknown
Sunlit
N/A
Visualization observer readout
Local Sidereal Time
17:40:00
Azimuth
Unknown
Elevation
Unknown
Doppler factor
Unknown
Orbital elements
Apogee altitude
868.284 km
Perigee altitude
805.569 km
Semi-major axis
7,215.063 km
Eccentricity
0.00435
Inclination
98.838°
RAAN
0.1038°
Arg. of periapsis
99.4174°
True anomaly
260.69986°
Mean anomaly
261.1916°
Eccentric anomaly
260.94569°
Mean motion
3.54146 °/min
Orbital period
101.65 mins
BSTAR
0.00080097
Loading maneuver chart data...
Computing Atmospheric mass density...
Loading historical data...
Loading historical data...
Loading historical data...
Loading historical data...
Loading historical data...
Loading historical data...
Loading historical data...

Documentation

Showing up to 5 results
|